When you browse on this site, cookies collect data to enhance your experience and personalize the content and advertising you see.
Visit our Privacy Policy to learn more. By continuing to use the site, you agree to this use of cookies and data.
  • en France
  • Liste des pays
  • À 7 jours
  • Température de l'eau
  • Carte météo
  • Widgets météo
  • user-avatar
    Se connecter

    Météo par heure à Ganja

    Ce jour, 27 Mai, Mercredi

    Heure Température Précipitation Vent Pression Humidité
    00:00 +18°C° 0 mm 4 m/s 730 mmHg 65%
    01:00 +17°C° 0 mm 3 m/s 729 mmHg 67%
    02:00 +17°C° 0 mm 2 m/s 729 mmHg 68%
    03:00 +16°C° 0 mm 2 m/s 729 mmHg 71%
    04:00 +16°C° 0 mm 1 m/s 730 mmHg 71%
    05:00 +18°C° 0 mm 1 m/s 730 mmHg 70%
    06:00 +18°C° 0 mm 1 m/s 730 mmHg 70%
    07:00 +19°C° 0 mm 1 m/s 730 mmHg 67%
    08:00 +20°C° 0 mm 2 m/s 730 mmHg 63%
    09:00 +21°C° 0 mm 2 m/s 730 mmHg 60%
    10:00 +23°C° 0 mm 2 m/s 730 mmHg 57%
    11:00 +24°C° 0 mm 2 m/s 730 mmHg 53%
    12:00 +26°C° 0 mm 2 m/s 729 mmHg 50%
    13:00 +26°C° 0 mm 2 m/s 729 mmHg 48%
    14:00 +27°C° 0 mm 2 m/s 728 mmHg 46%
    15:00 +28°C° 0 mm 2 m/s 728 mmHg 44%
    16:00 +27°C° 0 mm 2 m/s 728 mmHg 46%
    17:00 +27°C° 0 mm 1 m/s 728 mmHg 48%
    18:00 +26°C° 0 mm 1 m/s 728 mmHg 50%
    19:00 +25°C° 0 mm 1 m/s 728 mmHg 54%
    20:00 +23°C° 0 mm 1 m/s 728 mmHg 58%
    21:00 +22°C° 0 mm 1 m/s 728 mmHg 62%
    22:00 +22°C° 0 mm 1 m/s 728 mmHg 62%
    23:00 +21°C° 0 mm 1 m/s 728 mmHg 63%

    Demain, 28 Mai, Jeudi

    Heure Température Précipitation Vent Pression Humidité
    00:00 +21°C° 0 mm 1 m/s 727 mmHg 63%
    01:00 +20°C° 0 mm 1 m/s 727 mmHg 65%
    02:00 +20°C° 0 mm 1 m/s 727 mmHg 66%
    03:00 +20°C° 0 mm 1 m/s 727 mmHg 67%
    04:00 +20°C° 0 mm 1 m/s 727 mmHg 65%
    05:00 +21°C° 0 mm 1 m/s 727 mmHg 64%
    06:00 +22°C° 0 mm 1 m/s 727 mmHg 63%
    07:00 +23°C° 0 mm 1 m/s 727 mmHg 60%
    08:00 +24°C° 0 mm 1 m/s 726 mmHg 57%
    09:00 +26°C° 0 mm 2 m/s 726 mmHg 54%
    10:00 +27°C° 0 mm 2 m/s 726 mmHg 51%
    11:00 +28°C° 0 mm 2 m/s 726 mmHg 49%
    12:00 +29°C° 0 mm 2 m/s 725 mmHg 46%
    13:00 +30°C° 0 mm 2 m/s 725 mmHg 45%
    14:00 +30°C° 0 mm 2 m/s 724 mmHg 43%
    15:00 +31°C° 0 mm 2 m/s 724 mmHg 42%
    16:00 +30°C° 0.1 mm 2 m/s 724 mmHg 45%
    17:00 +30°C° 0.1 mm 2 m/s 724 mmHg 47%
    18:00 +29°C° 0.1 mm 2 m/s 724 mmHg 50%
    19:00 +28°C° 0 mm 2 m/s 724 mmHg 53%
    20:00 +26°C° 0 mm 2 m/s 724 mmHg 57%
    21:00 +25°C° 0 mm 2 m/s 724 mmHg 60%
    22:00 +24°C° 0 mm 2 m/s 724 mmHg 59%
    23:00 +23°C° 0 mm 2 m/s 724 mmHg 58%

    Après-demain, 29 Mai, Vendredi

    Heure Température Précipitation Vent Pression Humidité
    00:00 +23°C° 0 mm 2 m/s 724 mmHg 57%
    01:00 +21°C° 0 mm 2 m/s 724 mmHg 58%
    02:00 +22°C° 0 mm 1 m/s 723 mmHg 60%
    03:00 +21°C° 0 mm 1 m/s 723 mmHg 61%
    04:00 +22°C° 0 mm 1 m/s 723 mmHg 61%
    05:00 +23°C° 0 mm 1 m/s 723 mmHg 60%
    06:00 +23°C° 0 mm 1 m/s 723 mmHg 60%
    07:00 +25°C° 0 mm 1 m/s 722 mmHg 58%
    08:00 +26°C° 0 mm 1 m/s 722 mmHg 56%
    09:00 +27°C° 0 mm 2 m/s 722 mmHg 54%
    10:00 +28°C° 0 mm 2 m/s 721 mmHg 51%
    11:00 +30°C° 0 mm 3 m/s 721 mmHg 48%
    12:00 +31°C° 0 mm 3 m/s 721 mmHg 45%
    13:00 +33°C° 0.2 mm 4 m/s 720 mmHg 44%
    14:00 +33°C° 0.2 mm 4 m/s 719 mmHg 42%
    15:00 +34°C° 0.2 mm 5 m/s 719 mmHg 40%
    16:00 +33°C° 0.3 mm 4 m/s 719 mmHg 44%
    17:00 +32°C° 0.3 mm 4 m/s 719 mmHg 47%
    18:00 +30°C° 0.3 mm 4 m/s 719 mmHg 51%
    19:00 +28°C° 0.3 mm 3 m/s 719 mmHg 56%
    20:00 +26°C° 0.3 mm 2 m/s 719 mmHg 62%
    21:00 +24°C° 0.3 mm 1 m/s 720 mmHg 67%
    22:00 +24°C° 0 mm 2 m/s 720 mmHg 68%
    23:00 +22°C° 0 mm 3 m/s 720 mmHg 68%

    30 Mai, Samedi

    Heure Température Précipitation Vent Pression Humidité
    00:00 +22°C° 0 mm 3 m/s 720 mmHg 68%
    01:00 +21°C° 0 mm 4 m/s 720 mmHg 65%
    02:00 +21°C° 0 mm 5 m/s 720 mmHg 62%
    03:00 +20°C° 0 mm 6 m/s 720 mmHg 58%
    04:00 +20°C° 0 mm 6 m/s 720 mmHg 59%
    05:00 +21°C° 0 mm 6 m/s 721 mmHg 59%
    06:00 +21°C° 0 mm 6 m/s 721 mmHg 59%
    07:00 +22°C° 0 mm 6 m/s 721 mmHg 56%
    08:00 +24°C° 0 mm 7 m/s 721 mmHg 52%
    09:00 +26°C° 0 mm 7 m/s 721 mmHg 49%
    10:00 +27°C° 0 mm 7 m/s 722 mmHg 47%
    11:00 +28°C° 0 mm 7 m/s 722 mmHg 45%
    12:00 +29°C° 0 mm 7 m/s 722 mmHg 44%
    13:00 +29°C° 0.2 mm 7 m/s 722 mmHg 43%
    14:00 +29°C° 0.2 mm 6 m/s 722 mmHg 41%
    15:00 +30°C° 0.2 mm 6 m/s 721 mmHg 40%
    16:00 +29°C° 0.3 mm 6 m/s 722 mmHg 43%
    17:00 +28°C° 0.3 mm 5 m/s 722 mmHg 46%
    18:00 +27°C° 0.3 mm 5 m/s 722 mmHg 49%
    19:00 +26°C° 0 mm 5 m/s 722 mmHg 50%
    20:00 +25°C° 0 mm 5 m/s 723 mmHg 51%
    21:00 +22°C° 0 mm 5 m/s 723 mmHg 52%
    22:00 +22°C° 0 mm 4 m/s 724 mmHg 54%
    23:00 +21°C° 0 mm 3 m/s 724 mmHg 56%

    31 Mai, Dimanche

    Heure Température Précipitation Vent Pression Humidité
    00:00 +20°C° 0 mm 2 m/s 724 mmHg 58%
    01:00 +19°C° 0 mm 2 m/s 724 mmHg 60%
    02:00 +19°C° 0 mm 2 m/s 724 mmHg 62%
    03:00 +18°C° 0 mm 2 m/s 724 mmHg 64%
    04:00 +19°C° 0 mm 2 m/s 725 mmHg 65%
    05:00 +19°C° 0 mm 2 m/s 725 mmHg 66%
    06:00 +20°C° 0 mm 1 m/s 726 mmHg 66%
    07:00 +22°C° 0 mm 1 m/s 726 mmHg 63%
    08:00 +23°C° 0 mm 2 m/s 726 mmHg 60%
    09:00 +24°C° 0 mm 2 m/s 726 mmHg 57%
    10:00 +25°C° 0.1 mm 2 m/s 726 mmHg 54%
    11:00 +26°C° 0.1 mm 2 m/s 726 mmHg 51%
    12:00 +27°C° 0.1 mm 2 m/s 726 mmHg 48%
    13:00 +28°C° 0.1 mm 2 m/s 725 mmHg 46%
    14:00 +28°C° 0.1 mm 2 m/s 725 mmHg 44%
    15:00 +29°C° 0.1 mm 2 m/s 725 mmHg 43%
    16:00 +28°C° 0 mm 1 m/s 725 mmHg 44%
    17:00 +28°C° 0 mm 1 m/s 725 mmHg 45%
    18:00 +28°C° 0 mm 1 m/s 725 mmHg 46%
    19:00 +27°C° 0 mm 2 m/s 725 mmHg 50%
    20:00 +25°C° 0 mm 2 m/s 726 mmHg 55%
    21:00 +22°C° 0 mm 3 m/s 726 mmHg 59%
    22:00 +22°C° 0 mm 3 m/s 726 mmHg 60%
    23:00 +21°C° 0 mm 4 m/s 726 mmHg 61%

    1 Juin, Lundi

    Heure Température Précipitation Vent Pression Humidité
    00:00 +20°C° 0 mm 4 m/s 726 mmHg 62%
    01:00 +20°C° 0 mm 3 m/s 726 mmHg 63%
    02:00 +19°C° 0 mm 3 m/s 726 mmHg 64%
    03:00 +19°C° 0 mm 2 m/s 725 mmHg 65%
    04:00 +19°C° 0 mm 2 m/s 725 mmHg 64%
    05:00 +19°C° 0 mm 2 m/s 725 mmHg 64%
    06:00 +20°C° 0 mm 2 m/s 725 mmHg 63%
    07:00 +21°C° 0 mm 2 m/s 725 mmHg 61%
    08:00 +23°C° 0 mm 2 m/s 725 mmHg 58%
    09:00 +24°C° 0 mm 2 m/s 725 mmHg 56%
    10:00 +25°C° 0 mm 2 m/s 724 mmHg 53%
    11:00 +26°C° 0 mm 2 m/s 724 mmHg 50%
    12:00 +27°C° 0 mm 3 m/s 723 mmHg 48%
    13:00 +28°C° 0 mm 2 m/s 723 mmHg 46%
    14:00 +29°C° 0 mm 2 m/s 722 mmHg 45%
    15:00 +29°C° 0 mm 2 m/s 722 mmHg 43%
    16:00 +29°C° 0.1 mm 2 m/s 722 mmHg 45%
    17:00 +29°C° 0.1 mm 2 m/s 722 mmHg 47%
    18:00 +28°C° 0.1 mm 2 m/s 721 mmHg 48%
    19:00 +27°C° 0 mm 2 m/s 722 mmHg 51%
    20:00 +26°C° 0 mm 2 m/s 722 mmHg 54%
    21:00 +24°C° 0 mm 2 m/s 722 mmHg 57%
    22:00 +24°C° 0 mm 2 m/s 722 mmHg 55%
    23:00 +23°C° 0 mm 2 m/s 722 mmHg 54%
    Voir plus